Regional Weather Roundup
Issued by NWS Albany, NY

Home | Current Version | Previous Version | Text Only | Print | Product List | Glossary On
Versions: 1 2 3 4 5 6 7 8 9 10 11 12 13 14 15 16 17 18 19 20 21 22 23 24 25 26 27 28 29 30 31 32 33 34 35 36 37 38 39 40 41 42 43 44 45 46 47 48 49 50
780
ASUS41 KALY 261310
RWRALY

NEW YORK STATE HOURLY WEATHER ROUNDUP
NATIONAL WEATHER SERVICE ALBANY NY
800 AM EST SUN FEB 26 2017

NOTE: "FAIR" INDICATES FEW OR NO CLOUDS BELOW 12,000 FEET WITH NO
SIGNIFICANT WEATHER AND/OR NO OBSTRUCTIONS TO VISIBILITY.

NYZ032-033-038>043-046>054-057>066-NYZ062>081-082-084-261400-
EAST


CITY           SKY/WX    TMP DP  RH WIND       PRES   REMARKS
ALBANY         CLOUDY    32  20  61 W15G32    29.89R WCI  22
GLENS FALLS    CLOUDY    33  18  53 VRB7G21   29.84R WCI  27
POUGHKEEPSIE   CLOUDY    33  16  49 NW12G23   29.92R WCI  24
NEWBURGH       PTSUNNY   32  21  64 NW14G23   29.92R WCI  22
MONTGOMERY     CLOUDY    34  17  50 NW10G28   29.92R WCI  26
WHITE PLAINS   PTSUNNY   35  17  47 W20G29    29.89R WCI  24
ISLIP          PTSUNNY   38  21  50 W16G23    29.89R WCI  29
NEW YORK CITY  PTSUNNY   39  19  44 W18G28    29.93R WCI  30
CENTRAL PARK   CLOUDY    36  18  48 W13G23    29.95R WCI  27
$$

NYZ005>009-017-018-044>046-055-056-261400-
CENTRAL


CITY           SKY/WX    TMP DP  RH WIND       PRES   REMARKS
FULTON         MOSUNNY   30  16  56 NW18G26   29.96R WCI  18
SYRACUSE       CLOUDY    30  16  56 W17G29    29.95R WCI  18
ROME           FLURRIES  28  22  78 NW15      29.95R WCI  16
ELMIRA         CLOUDY    28  16  60 W9        29.98R WCI  19
BINGHAMTON     FLURRIES  24  17  74 W12       29.90R WCI  13
MONTICELLO     MOSUNNY  N/A N/A N/A NW16G22   29.89R
$$

NYZ026>034-041>043-087-261400-
NORTH


CITY           SKY/WX    TMP DP  RH WIND       PRES   REMARKS
WATERTOWN      SUNNY     27  14  58 W20G29    29.95R WCI  13
FORT DRUM      NOT AVBL
OGDENSBURG     FAIR      27  16  62 W9G24     29.89R WCI  18
MASSENA        FLURRIES  24  17  74 NW17G23   29.87R WCI  11
SARANAC LAKE   CLOUDY    20  14  77 W10G22    29.73R WCI   9
PLATTSBURGH    CLOUDY    30  18  60 MISG      29.79R
$$

NYZ001>004-010>016-019>021-085-261400-
WEST


CITY           SKY/WX    TMP DP  RH WIND       PRES   REMARKS
NIAGARA FALLS  LGT SNOW  27  21  78 W10       30.01R VSB 3/4 WCI  17
BUFFALO        FLURRIES  27  17  66 W12       30.00R WCI  17
DUNKIRK        FLURRIES  28  15  58 W12G21    30.04R WCI  18
JAMESTOWN      CLOUDY    21  16  79 W12       29.97R WCI   9
WELLSVILLE     CLOUDY    23  14  68 W15G21    29.94R WCI  10
ROCHESTER      FLURRIES  28  21  75 W13       29.99R WCI  17
PENN YAN       LGT SNOW  28  18  66 W5        29.98R WCI  23
$$

             KEY
       WCI = WIND CHILL INDEX
       VSB = VISIBILITY
       HX  = HEAT INDEX
$$




USA.gov is the U.S. government's official web portal to all federal, state and local government web resources and services.